Weather History for Gillette, WY

Change the Weather History Date:

Saturday, March 9, 2013

  Actual Average Record
Temperature  
Mean Temperature 31 °F 33 °F  
Max Temperature 41 °F 45 °F 69 °F (1972)
Min Temperature 21 °F 21 °F -12 °F (1932)
Degree Days  
Heating Degree Days 34 32  
Month to date heating degree days 283 298  
Since 1 July heating degree days 5406 5706  
Cooling Degree Days 0 0  
Month to date cooling degree days 0 0  
Year to date cooling degree days 0 0  
Moisture  
Dew Point 24 °F    
Average Humidity 69    
Maximum Humidity 100    
Minimum Humidity 37    
Precipitation  
Precipitation 0.00 in 0.03 in 0.75 in (1927)
Month to date precipitation 0.01 0.22  
Year to date precipitation 1.14 1.00  
Sea Level Pressure  
Sea Level Pressure 29.99 in    
Wind  
Wind Speed 16 mph (NNW)    
Max Wind Speed 35 mph    
Max Gust Speed 41 mph    
Visibility 10 miles    
Events      
T = Trace of Precipitation, MM = Missing Value Source: NWS Daily Summary

Daily Weather History Graph

Daily Weather History Graph

Search for Another Location

Airport:

Trip Planner

Search our weather history database for the weather conditions in past years. The results will help you decide how hot, cold, wet, or windy it might be!

Date:

Astronomy

Mar. 09, 2013 Rise Set
Actual Time 6:24 AM MST 6:01 PM MST
Civil Twilight 5:55 AM MST 6:30 PM MST
Nautical Twilight 5:22 AM MST 7:03 PM MST
Astronomical Twilight 4:48 AM MST 7:37 PM MST
Moon 4:54 AM MST (3/9) 4:03 PM MST (3/9)
Length of Visible Light 12h 34m
Length of Day
11h 36m
Waning Crescent, 5% of the Moon is Illuminated
Mar 9
Waning Crescent
Mar 11
New
Mar 19
First Quarter
Mar 27
Full
Apr 2
Last Quarter

Hourly Weather History & Observations

Time (MST) Temp. Windchill Dew Point Humidity Pressure Visibility Wind Dir Wind Speed Gust Speed Precip Events Conditions
12:53 AM 30.9 °F - 28.0 °F 89% 29.84 in 10.0 mi Calm Calm - N/A   Overcast
1:53 AM 32.0 °F - 28.0 °F 85% 29.83 in 10.0 mi Calm Calm - N/A   Overcast
2:53 AM 30.9 °F 25.2 °F 28.9 °F 92% 29.83 in 10.0 mi North 5.8 mph - N/A   Overcast
3:53 AM 30.9 °F 24.3 °F 28.0 °F 89% 29.84 in 10.0 mi NW 6.9 mph - N/A   Mostly Cloudy
4:00 AM 32.0 °F 24.2 °F 28.4 °F 87% 29.81 in 10.0 mi WNW 9.2 mph - N/A   Mostly Cloudy
4:53 AM 33.1 °F 23.0 °F 28.9 °F 85% 29.86 in 10.0 mi NNW 15.0 mph - N/A   Overcast
5:53 AM 30.9 °F 20.2 °F 28.9 °F 92% 29.89 in 10.0 mi NNW 15.0 mph - N/A   Overcast
6:18 AM 30.2 °F 17.8 °F 28.4 °F 93% 29.85 in 10.0 mi NNW 19.6 mph - N/A   Overcast
6:53 AM 30.9 °F 17.8 °F 28.0 °F 89% 29.94 in 10.0 mi NNW 23.0 mph 29.9 mph N/A   Overcast
7:08 AM 30.2 °F 17.8 °F 28.4 °F 93% 29.86 in 10.0 mi North 19.6 mph - N/A   Overcast
7:45 AM 30.2 °F 18.1 °F 28.4 °F 93% 29.89 in 10.0 mi North 18.4 mph - N/A   Overcast
7:53 AM 30.9 °F 18.7 °F 27.0 °F 85% 29.98 in 10.0 mi NNW 19.6 mph - N/A   Overcast
8:20 AM 30.2 °F 18.5 °F 26.6 °F 86% 29.90 in 10.0 mi North 17.3 mph - N/A   Overcast
8:53 AM 34.0 °F 22.1 °F 26.1 °F 73% 30.00 in 10.0 mi North 21.9 mph - N/A   Overcast
9:02 AM 33.8 °F 22.5 °F 26.6 °F 75% 29.92 in 10.0 mi North 19.6 mph - N/A   Mostly Cloudy
9:53 AM 37.0 °F 26.2 °F 23.0 °F 57% 29.99 in 10.0 mi North 21.9 mph 28.8 mph N/A   Mostly Cloudy
10:53 AM 37.9 °F 25.7 °F 21.9 °F 53% 30.01 in 10.0 mi North 29.9 mph 36.8 mph N/A   Partly Cloudy
11:53 AM 37.9 °F 26.6 °F 19.9 °F 48% 30.00 in 10.0 mi North 25.3 mph 35.7 mph N/A   Overcast
12:53 PM 39.0 °F 27.6 °F 16.0 °F 39% 30.00 in 10.0 mi North 27.6 mph 38.0 mph N/A   Mostly Cloudy
1:53 PM 37.9 °F 26.8 °F 16.0 °F 41% 29.99 in 10.0 mi North 24.2 mph 36.8 mph N/A   Overcast
2:53 PM 37.9 °F 27.1 °F 15.1 °F 39% 30.02 in 10.0 mi NNW 23.0 mph 32.2 mph N/A   Overcast
3:53 PM 37.9 °F 27.3 °F 15.1 °F 39% 30.03 in 10.0 mi North 21.9 mph 31.1 mph N/A   Overcast
4:53 PM 37.0 °F 26.4 °F 18.0 °F 46% 30.05 in 10.0 mi North 20.7 mph 28.8 mph N/A   Overcast
5:53 PM 32.0 °F 22.1 °F 21.9 °F 66% 30.10 in 10.0 mi NW 13.8 mph - N/A   Mostly Cloudy
6:53 PM 30.9 °F 23.5 °F 26.1 °F 82% 30.15 in 10.0 mi NNW 8.1 mph - N/A   Overcast
7:24 PM 30.2 °F 20.2 °F 24.8 °F 80% 30.08 in 10.0 mi North 12.7 mph - N/A   Mostly Cloudy
7:48 PM 28.4 °F 19.7 °F 26.6 °F 93% 30.09 in 10.0 mi North 9.2 mph - N/A   Mostly Cloudy
7:53 PM 28.0 °F 20.8 °F 26.1 °F 92% 30.18 in 10.0 mi North 6.9 mph - N/A   Scattered Clouds
8:53 PM 25.0 °F 14.8 °F 24.1 °F 96% 30.20 in 10.0 mi NNW 10.4 mph - N/A   Mostly Cloudy
9:53 PM 28.0 °F 16.5 °F 23.0 °F 81% 30.20 in 10.0 mi NNW 15.0 mph - N/A   Overcast
10:53 PM 25.0 °F 13.6 °F 19.9 °F 81% 30.21 in 10.0 mi North 12.7 mph - N/A   Mostly Cloudy
11:53 PM 21.9 °F 12.5 °F 16.0 °F 78% 30.22 in 10.0 mi NNW 8.1 mph - N/A   Clear